Regional Weather Roundup
Issued by NWS

Home | Current Version | Previous Version | Text Only | Print | Product List | Glossary On
Versions: 1 2 3 4 5 6 7 8 9 10 11 12 13 14 15 16 17 18 19 20 21 22 23 24 25 26 27 28 29 30 31 32 33 34 35 36 37 38 39 40 41 42 43 44 45 46 47 48 49 50
000
ASUS43 KLOT 020310
RWRIL

ILLINOIS REGIONAL WEATHER ROUNDUP
NATIONAL WEATHER SERVICE CHICAGO/ROMEOVILLE IL
1000 PM CDT FRI AUG 01 2014

NOTE: "FAIR" INDICATES FEW OR NO CLOUDS BELOW 12,000 FEET WITH NO
SIGNIFICANT WEATHER AND/OR OBSTRUCTIONS TO VISIBILITY.

* THESE STATIONS ARE NOT UNDER NWS QUALITY CONTROL. THEY ALSO MAY NOT
  REPORT WEATHER SUCH AS PRECIPITATION OR FOG.

ILZ001-002-007-009-015-016-024-020400-
NORTHWEST ILLINOIS

CITY           SKY/WX    TMP DP  RH WIND       PRES   REMARKS
MOLINE         PTCLDY    68  63  84 CALM      30.09R
STERLING*      CLOUDY    66  61  82 E13       30.15R THUNDER
SAVANNA*       PTCLDY    69  59  70 E12       30.11R
$$

ILZ003-004-008-010-011-017-018-020400-
NORTH CENTRAL ILLINOIS

CITY           SKY/WX    TMP DP  RH WIND       PRES   REMARKS
ROCKFORD       CLOUDY    63  59  87 SE10      30.18R
FREEPORT*      MOCLDY    63  59  85 SE12      30.17R THUNDER
ROCHELLE*      CLOUDY    63  59  88 E10       30.17R
DE KALB*       CLOUDY    61  56  84 NE8       30.20R
PERU*          MOCLDY    65  61  85 N7        30.12R
$$

ILZ005-006-012>014-019>023-020400-
NORTHEAST ILLINOIS

CITY           SKY/WX    TMP DP  RH WIND       PRES   REMARKS
CHICAGO-OHARE  CLOUDY    70  54  56 N12       30.13R
CHICAGO-MIDWAY MOCLDY    70  61  73 W3        30.12R
AURORA         CLOUDY    67  57  70 N18G28    30.17R
LANSING*       MOCLDY    65  59  81 CALM      30.13R
JOLIET*        MOCLDY    65  61  86 CALM      30.13R
WAUKEGAN       LGT RAIN  64  55  72 NW7       30.10F
DUPAGE AIRPORT CLOUDY    69  55  60 N16       30.16R
KANKAKEE*      MOCLDY    63  62  96 CALM      30.12S
WHEELING       CLOUDY    70  55  59 N12       30.14R
MORRIS*        CLOUDY    64  63  95 CALM      30.12R
ROMEOVILLE*    CLOUDY    67  61  81 N9G17     30.13R
NORTHERLY ISL    N/A     72  58  61 W6          N/A
$$

LMZ740>746-020400-
SOUTHERN LAKE MICHIGAN

STATION/POSITION SKY/WX   TEMP    WIND        PRES    VSBY  WAVE
                          AIR SEA DIR/SP/G                  HT/PER
                          (F)     (DEG/KT/KT) (MB)    (MI)  (FT/S)
SOUTHERN BUOY              67 64  250/  4/  6 1019.1R         0
WAUKEGAN HARBOR            68     310/ 12/ 16   N/A
HARRISON CRIB              71     310/ 11/ 13   N/A
BURNHAM HARBOR             72     310/  5/ 12   N/A
CALUMET HARBOR             70                 1018.6
BURNS HARBOR               69     200/  4/  6   N/A
MICHIGAN CITY              69     210/  6/  8   N/A
MICHIGAN CITY 6N           69 69  230/  4/  4   N/A           0
ST. JOSEPH                 69 70   CALM  /  2   N/A           0
$$

ILZ025>027-034>036-040-047-049-050-058-095>099-020400-
WEST-CENTRAL ILLINOIS

CITY           SKY/WX    TMP DP  RH WIND       PRES   REMARKS
QUINCY         PTCLDY    66  64  93 NE8       30.12R
GALESBURG*     MOCLDY    62  60  91 CALM      30.11R
MACOMB*        CLOUDY    64  62  94 W6        30.12S
JACKSONVILLE*  PTCLDY    64  63  96 CALM      30.10F
PITTSFIELD*    CLEAR     64  62  92 CALM      30.12R
$$

ILZ028>032-037-038-041>044-048-051>054-059>061-020400-
CENTRAL ILLINOIS

CITY           SKY/WX    TMP DP  RH WIND       PRES   REMARKS
PONTIAC        CLOUDY    63  63 100 E3        30.11R FOG
DECATUR        MOCLDY    62  60  93 CALM      30.10R
PEORIA         CLOUDY    66  62  87 CALM      30.10S
LACON*         CLOUDY    63  60  91 CALM      30.10R
LINCOLN*       MOCLDY    65  62  87 CALM      30.08R
SPRINGFIELD    PTCLDY    64  62  93 S5        30.10R
TAYLORVILLE    PTCLDY    59  59 100 CALM      30.10R
$$

ILZ033-039-045-046-055>057-062-063-020400-
EAST-CENTRAL ILLINOIS

CITY           SKY/WX    TMP DP  RH WIND       PRES   REMARKS
CHAMPAIGN      MOCLDY    65  62  90 CALM      30.11R
DANVILLE*      RAIN      65  64  97 CALM      30.09R
RANTOUL*       MOCLDY    67  62  84 CALM      30.12R
MATTOON          N/A     65  65 100 CALM      30.10R
PARIS*         CLOUDY    64  63  95 CALM      30.11R
$$

ILZ079-100>102-020400-
SOUTHWEST ILLINOIS

CITY           SKY/WX    TMP DP  RH WIND       PRES   REMARKS
BELLEVILLE     CLOUDY    66  66 100 CALM      30.08R
CAHOKIA*       MOCLDY    67  64  90 CALM      30.09R
SPARTA*        CLOUDY    64  63  94 E6        30.09F
$$

ILZ064>066-069>071-074>076-080>082-084>086-088>090-092>094-020400-
SOUTH-CENTRAL ILLINOIS

CITY           SKY/WX    TMP DP  RH WIND       PRES   REMARKS
CARBONDALE     CLOUDY    69  59  70 NE3       30.08R
CAIRO*         CLOUDY    72  66  81 CALM      30.05S
EFFINGHAM*     RAIN      62  59  90 S5        30.10R
MARION         MOCLDY    70  63  78 E5        30.09R
MT. VERNON     CLOUDY    68  61  77 SW10      30.10R
CENTRALIA*     CLOUDY    66  61  84 CALM      30.09R
SALEM*         CLOUDY    66  64  93 CALM      30.08S
METROPOLIS*    MOCLDY    74  62  66 CALM      30.05S
$$

ILZ067-068-072-073-078-083-087-091-020400-
SOUTHEAST ILLINOIS

CITY           SKY/WX    TMP DP  RH WIND       PRES   REMARKS
LAWRENCEVILLE  CLOUDY    69  63  81 N5        30.09R
FLORA*         CLOUDY    65  63  92 CALM      30.09R
FAIRFIELD*     CLOUDY    70  64  83 CALM      30.08R
HARRISBURG*    RAIN      69  64  82 NW6       30.09R
ROBINSON*      CLOUDY    67  65  94 NE6       30.10R
CARMI*         CLOUDY    72  64  78 NE3       30.07S
$$

ABBREVIATIONS USED IN REMARKS
   TC - TEMPERATURE IN CELSIUS
  WCI - WIND CHILL INDEX
   HX - HEAT INDEX
  VSB - VISIBILITY
$$



USA.gov is the U.S. government's official web portal to all federal, state and local government web resources and services.